Погода в Воскресенке

Россия / Самарская область     53°03′22″N   50°00′55″E
В апреле 2022 года жителям России запретили посещать сайт meteo.paraplan.net по решению Генеральной прокуратуры. Аудитория сайта уменьшилась в 10 раз. Владельцы сайта не видят смысла в поддержке погодного сервера в таких условиях. Сайт будет закрыт в октябре.
темп.,
°C
ветер,
м/с
пор.,
м/с
влажн.,
%
обл.,
%
осадки,
мм/ч
давл.,
гПа
погр.,
м
4 октября, вт
вт401:00+14ююв71528100 0.0 1021543
04:00+14ююв61429100 0.0 1022516
07:00+13ююв61326100 0.0 1023466
10:00+13ююв61326100 0.0 1024552
13:00+17ююв71023100 0.0 1024951
16:00+17ююв6112294 0.0 1024687
19:00+15ююв6122198 0.0 1025512
22:00+13юв41231100 0.0 1025553
5 октября, ср
ср501:00+12ююв51140100 0.2 1025839
04:00+11ююв61356100 0.3 1025784
07:00+12ююв51235100 0.0 1024646
10:00+13ююв61333100 0.0 1023607
13:00+12ююв5124154 0.0 1023547
16:00+14ююв61133100 0.0 1022670
19:00+12ю91352100 0.2 1022775
22:00+11ю61584100 8.1 1020723
6 октября, чт
чт601:00+10ююв3969100 0.3 1019284
04:00+10юз388790 1.2 1017296
07:00+9ююз39960 0.0 1016212
10:00+11зюз710681 0.0 1017878
13:00+12з695187 0.0 10171764
16:00+11з5856100 0.0 10191406
19:00+8зюз376996 0.0 1020262
22:00+6з47785 0.1 1021221
7 октября, пт
пт701:00+5зюз348251 0.0 102189
04:00+7з3678100 0.0 1021282
07:00+7зюз4778100 0.0 1021331
10:00+9з46635 0.0 1021507
13:00+12зюз574657 0.0 10211269
16:00+13зюз6748100 0.0 10201088
19:00+11зюз5107597 0.0 1020394
22:00+12з5107747 0.0 1020462
8 октября, сб
сб801:00+11сз5974100 0.0 1023777
04:00+12сз48572 0.0 1024390
07:00+8зсз38790 0.0 1026147
10:00+12зсз46610 0.0 1027487
13:00+15зсз45470 0.0 10271028
16:00+15з45444 0.0 10261126
19:00+11зюз22595 0.0 102712
22:00+10юз23675 0.0 102728